Weather observations for the past three days for
Guymon / Guymon Municipal Airport
Metric (Imperial)
Date Time (cdt) Wind (kph) Vis. (km) Weather Sky Cond. Temperature (ºC) Relative Humidity Wind Chill (°C) Heat Index (°C) Pressure Precipitation (cm)
Air Dwpt 6 hour altimeter (cm) sea level (mb) 1 hr 3 hr 6 hr
Max. Min.
01 17:53 S 19 G 39 16.09 A Few Clouds FEW100 35.6 10 21% 34 76.05 1008.6
01 16:53 S 26 G 41 16.09 A Few Clouds FEW100 36.1 10.6 21% 34 76.07 1008.7
01 15:53 S 24 G 33 16.09 Partly Cloudy SCT100 36.7 11.1 21% 35 76.12 1009.3
01 14:53 SW 22 G 41 16.09 A Few Clouds FEW100 36.7 11.1 21% 35 76.2 1010.1
01 13:53 SW 30 G 43 16.09 A Few Clouds FEW090 36.1 11.7 23% 35 76.25 1010.7
01 12:53 SW 24 G 37 16.09 A Few Clouds FEW085 35 12.2 36.1 19.4 25% 34 76.33 1011.6
01 11:53 SW 30 G 39 16.09 Fair CLR 33.9 13.9 30% 33 76.33 1011.8
01 10:53 S 13 16.09 Fair CLR 30 13.9 37% 29 76.35 1012.5
01 09:53 S 9 16.09 Fair CLR 26.7 13.9 45% 27 76.38 1012.8
01 08:53 S 7 16.09 Fair CLR 23.9 13.3 52% 25 76.4 1013.1
01 07:53 Calm 16.09 Fair CLR 20 12.8 63% 76.38 1013.0
01 06:53 Calm 16.09 A Few Clouds FEW100 20.6 12.8 26.7 19.4 61% 76.35 1012.4
01 05:53 Calm 16.09 Partly Cloudy SCT100 20 12.8 63% 76.35 1012.3
01 04:53 W 11 16.09 A Few Clouds FEW100 21.1 13.3 61% 76.3 1011.7
01 03:53 SW 7 16.09 Fair CLR 22.2 12.8 55% 76.3 1011.6
01 02:53 S 17 16.09 Fair CLR 24.4 13.3 50% 26 76.28 1011.2
01 01:53 S 20 16.09 Fair CLR 26.1 13.3 45% 26 76.28 1011.1
01 00:53 S 20 16.09 Fair CLR 27.2 13.3 36.1 27.2 42% 27 76.3 1011.4
31 23:53 S 20 16.09 Fair CLR 27.8 13.3 41% 28 76.28 1011.1
31 22:53 S 19 16.09 Fair CLR 28.3 12.8 38% 28 76.25 1011.1
31 21:53 S 17 16.09 Fair CLR 30 11.7 32% 29 76.17 1010.4
31 20:53 S 17 16.09 Fair CLR 31.1 11.7 30% 30 76.1 1009.4
31 19:53 S 22 16.09 Fair CLR 34.4 11.1 24% 33 76.05 1008.5
31 18:53 S 19 16.09 Fair CLR 36.1 11.7 38.3 32.8 23% 35 76.02 1008.0
31 17:53 S 22 16.09 Fair CLR 37.2 12.2 22% 36 76.02 1007.8
31 16:53 S 19 16.09 Fair CLR 38.3 11.7 20% 37 76.02 1007.8
31 15:53 S 15 16.09 Fair CLR 37.2 11.7 21% 36 76.1 1008.8
31 14:53 S 7 16.09 Fair CLR 36.1 12.8 24% 35 76.17 1009.7
31 13:53 Calm 16.09 Fair CLR 35 13.3 27% 34 76.23 1010.4
31 12:53 SW 13 16.09 Fair CLR 32.8 14.4 33.3 20 33% 32 76.28 1011.1
31 11:53 SW 15 16.09 Fair CLR 31.1 15 38% 31 76.3 1011.7
31 10:53 S 15 16.09 Fair CLR 27.2 16.1 51% 28 76.28 1011.5
31 09:53 S 7 16.09 Fair CLR 23.9 16.1 62% 25 76.25 1011.3
31 08:53 NW 9 16.09 Fair CLR 21.1 16.1 73% 76.25 1011.5
31 07:53 NW 9 16.09 Fair CLR 20 16.7 81% 76.23 1010.9
31 06:53 N 9 16.09 Fair CLR 20.6 16.7 28.3 20.6 78% 76.2 1010.2
31 05:53 NW 11 16.09 Fair CLR 22.8 12.8 53% 76.17 1009.8
31 04:53 S 7 16.09 Fair CLR 22.8 13.3 55% 76.17 1009.5
31 03:53 SW 7 16.09 Fair CLR 23.3 12.8 52% 76.15 1009.2
31 02:53 Calm 16.09 Fair CLR 26.1 12.2 42% 26 76.12 1008.7
31 01:53 SW 11 16.09 Fair CLR 26.7 12.2 41% 27 76.15 1009.1
31 00:53 S 15 16.09 Fair CLR 28.3 12.2 38.3 28.3 37% 28 76.05 1007.7
30 23:53 S 19 16.09 Fair CLR 28.9 12.2 36% 28 76 1007.2
30 22:53 S 20 G 39 16.09 Fair CLR 30 12.2 33% 29 75.97 1006.6
30 21:53 S 24 G 41 16.09 Fair CLR 31.1 11.7 30% 30 75.92 1006.1
30 20:53 S 20 16.09 Fair CLR 32.8 11.1 26% 31 75.84 1005.4
30 19:53 S 24 G 39 16.09 Fair CLR 36.1 11.1 22% 35 75.82 1005.1
30 18:53 S 31 G 50 16.09 Fair CLR 38.3 11.7 40.6 36.1 20% 37 75.82 1004.8
30 17:53 S 19 16.09 A Few Clouds FEW110 38.9 12.8 21% 38 75.82 1004.6
30 16:53 SW 15 G 31 16.09 Partly Cloudy SCT110 40 11.1 18% 39 75.84 1004.8
30 15:53 SW 13 G 28 16.09 Fair CLR 39.4 10.6 18% 38 75.9 1005.6
30 14:53 Calm 16.09 Fair CLR 38.9 10.6 18% 37 75.95 1006.4
30 13:53 Calm 16.09 Fair CLR 37.2 11.7 21% 36 76 1007.2
30 12:53 Vrbl 7 16.09 Fair CLR 36.7 12.2 36.7 22.2 23% 36 76.07 1008.0
30 11:53 W 22 G 35 16.09 Fair CLR 34.4 12.2 26% 33 76.1 1008.5
30 10:53 SW 20 16.09 Fair CLR 32.8 12.8 30% 32 76.07 1008.4
30 09:53 SW 26 16.09 Fair CLR 29.4 12.8 36% 29 76.1 1008.5
30 08:53 SW 15 16.09 Fair CLR 26.7 12.8 42% 27 76.12 1009.0
30 07:53 SW 11 16.09 Fair CLR 22.2 12.8 55% 76.12 1009.1
30 06:53 SW 9 16.09 Fair CLR 23.3 12.2 27.8 23.3 50% 76.1 1008.6
30 05:53 SW 20 16.09 Fair CLR 24.4 12.2 47% 26 76.05 1007.7
30 04:53 S 15 16.09 Fair CLR 23.9 12.8 50% 25 76.02 1007.5
30 03:53 S 19 16.09 Fair CLR 25 12.8 47% 26 76.02 1007.3
30 02:53 S 19 16.09 Fair CLR 26.7 12.8 42% 27 76.02 1007.4
30 01:53 S 17 16.09 Fair CLR 26.1 13.3 45% 26 76.07 1007.9
30 00:53 S 17 16.09 Fair CLR 27.8 12.8 37.2 27.8 40% 27 76.07 1008.2
29 23:53 S 20 16.09 Fair CLR 28.9 12.8 37% 28 76.05 1007.8
29 22:53 S 22 16.09 Fair CLR 29.4 12.8 36% 29 76.02 1007.4
29 21:53 S 26 16.09 Fair CLR 32.2 12.2 29% 31 75.95 1006.6
29 20:53 S 26 16.09 Fair CLR 33.3 12.2 28% 32 75.9 1006.0
29 19:53 S 31 G 46 16.09 Fair CLR 36.1 12.2 24% 35 75.84 1005.5
29 18:53 S 31 G 50 16.09 Fair CLR 37.2 12.2 40 34.4 22% 36 75.84 1005.4
Date Time (cdt) Wind (kph) Vis. (km) Weather Sky Cond. Air Dwpt Max. Min. Relative Humidity Wind Chill (°C) Heat Index (°C) altimeter (cm) sea level (mb) 1 hr 3 hr 6 hr
6 hour
Temperature (ºC) Pressure Precipitation (cm)